usa flag      new mexico flag

Language: 

LomaPinon History Data from Weather Underground


LomaPinon Weather Station Historical Data
 
Daily Summary for December 13, 2017 Units:  English    Metric   Both
« Previous Day
Next Day »
Daily Weekly Monthly Yearly Custom
  Current: High: Low: Average:
Temperature: 55.8 °F 55.8 °F 29.0 °F 37.9 °F
Dew Point: 11.6 °F 11.7 °F 4.1 °F 7.5 °F
Humidity: 17 % 35 % 17 % 29 %
Wind Speed: 0.0 mph 4.0 mph 0.0 mph 0.6 mph
Wind Gust: 1.0 mph 6.0 mph - -
Wind:Calm - - WSW
Pressure: 30.06 in 30.25 in 30.06 in -
Precipitation: 0.00 in      
Historical Graphs
 
 
Tabular Data for December 13, 2017
Time Temperature Dew Point Pressure Wind Wind Speed Wind Gust Humidity Rainfall Rate (Hourly) solar
00:00 35.5 °F 7.1 °F 30.25 in South 2.0 mph 3.0 mph 30 % 0.00 in 0 W/m2
00:05 35.4 °F 7.0 °F 30.25 in South 2.0 mph 3.0 mph 30 % 0.00 in 0 W/m2
00:10 35.4 °F 7.0 °F 30.25 in SSW 2.0 mph 4.0 mph 30 % 0.00 in 0 W/m2
00:11 35.4 °F 7.0 °F 30.25 in SSW 3.0 mph 4.0 mph 30 % 0.00 in 0 W/m2
00:16 35.5 °F 7.1 °F 30.25 in SSW 3.0 mph 5.0 mph 30 % 0.00 in 0 W/m2
00:21 35.6 °F 7.2 °F 30.25 in South 2.0 mph 5.0 mph 30 % 0.00 in 0 W/m2
00:22 35.6 °F 7.2 °F 30.25 in South 3.0 mph 4.0 mph 30 % 0.00 in 0 W/m2
00:27 35.6 °F 7.2 °F 30.25 in South 1.0 mph 4.0 mph 30 % 0.00 in 0 W/m2
00:32 35.5 °F 7.1 °F 30.25 in South 1.0 mph 3.0 mph 30 % 0.00 in 0 W/m2
00:37 35.5 °F 7.1 °F 30.24 in Calm   3.0 mph 30 % 0.00 in 0 W/m2
00:42 35.3 °F 6.9 °F 30.24 in SSW 3.0 mph 3.0 mph 30 % 0.00 in 0 W/m2
00:47 35.2 °F 6.8 °F 30.24 in Calm   3.0 mph 30 % 0.00 in 0 W/m2
00:52 35.0 °F 7.4 °F 30.24 in SSW 1.0 mph 3.0 mph 31 % 0.00 in 0 W/m2
00:53 35.0 °F 7.4 °F 30.24 in SSW 1.0 mph 3.0 mph 31 % 0.00 in 0 W/m2
00:58 34.8 °F 7.2 °F 30.24 in SSW 1.0 mph 2.0 mph 31 % 0.00 in 0 W/m2
01:03 34.6 °F 7.0 °F 30.24 in SSW 1.0 mph 3.0 mph 31 % 0.00 in 0 W/m2
01:08 34.3 °F 6.7 °F 30.24 in SSW 1.0 mph 3.0 mph 31 % 0.00 in 0 W/m2
01:18 34.0 °F 7.2 °F 30.23 in Calm   2.0 mph 32 % 0.00 in 0 W/m2
01:23 33.8 °F 7.0 °F 30.23 in SSW 1.0 mph 1.0 mph 32 % 0.00 in 0 W/m2
01:28 33.6 °F 6.8 °F 30.23 in Calm   2.0 mph 32 % 0.00 in 0 W/m2
01:33 33.4 °F 6.7 °F 30.23 in Calm   2.0 mph 32 % 0.00 in 0 W/m2
01:38 33.2 °F 6.5 °F 30.23 in Calm   1.0 mph 32 % 0.00 in 0 W/m2
01:43 33.1 °F 7.1 °F 30.23 in SSW 1.0 mph 1.0 mph 33 % 0.00 in 0 W/m2
01:48 32.9 °F 6.9 °F 30.23 in Calm   1.0 mph 33 % 0.00 in 0 W/m2
01:53 32.7 °F 6.7 °F 30.23 in Calm   1.0 mph 33 % 0.00 in 0 W/m2
01:58 32.5 °F 7.2 °F 30.23 in Calm     34 % 0.00 in 0 W/m2
02:03 32.2 °F 7.6 °F 30.23 in Calm     35 % 0.00 in 0 W/m2
02:13 31.6 °F 6.4 °F 30.24 in SSW 2.0 mph 2.0 mph 34 % 0.00 in 0 W/m2
02:18 31.5 °F 6.3 °F 30.24 in SW 1.0 mph 3.0 mph 34 % 0.00 in 0 W/m2
02:23 31.5 °F 6.9 °F 30.23 in WNW 3.0 mph 5.0 mph 35 % 0.00 in 0 W/m2
02:28 31.6 °F 7.0 °F 30.23 in WNW 2.0 mph 5.0 mph 35 % 0.00 in 0 W/m2
02:33 31.8 °F 7.2 °F 30.23 in Calm   4.0 mph 35 % 0.00 in 0 W/m2
02:38 31.9 °F 6.7 °F 30.23 in WNW 2.0 mph 3.0 mph 34 % 0.00 in 0 W/m2
02:43 32.0 °F 6.8 °F 30.23 in WNW 1.0 mph 3.0 mph 34 % 0.00 in 0 W/m2
02:48 32.2 °F 6.9 °F 30.22 in WNW 1.0 mph 2.0 mph 34 % 0.00 in 0 W/m2
02:53 32.4 °F 7.1 °F 30.22 in Calm   2.0 mph 34 % 0.00 in 0 W/m2
03:03 32.7 °F 6.7 °F 30.22 in WNW 1.0 mph 3.0 mph 33 % 0.00 in 0 W/m2
03:08 32.9 °F 6.2 °F 30.21 in Calm   2.0 mph 32 % 0.00 in 0 W/m2
03:13 33.0 °F 6.3 °F 30.21 in Calm   2.0 mph 32 % 0.00 in 0 W/m2
03:18 33.2 °F 6.5 °F 30.21 in WNW 1.0 mph 2.0 mph 32 % 0.00 in 0 W/m2
03:23 33.2 °F 7.2 °F 30.21 in WNW 1.0 mph 1.0 mph 33 % 0.00 in 0 W/m2
03:28 33.1 °F 6.4 °F 30.21 in Calm   1.0 mph 32 % 0.00 in 0 W/m2
03:33 33.1 °F 6.4 °F 30.20 in Calm   1.0 mph 32 % 0.00 in 0 W/m2
03:38 33.0 °F 6.3 °F 30.20 in WNW 1.0 mph 2.0 mph 32 % 0.00 in 0 W/m2
03:43 32.9 °F 6.2 °F 30.20 in Calm   2.0 mph 32 % 0.00 in 0 W/m2
03:48 32.7 °F 6.0 °F 30.20 in Calm   1.0 mph 32 % 0.00 in 0 W/m2
03:53 32.5 °F 6.5 °F 30.20 in Calm     33 % 0.00 in 0 W/m2
03:57 32.3 °F 6.4 °F 30.20 in Calm   1.0 mph 33 % 0.00 in 0 W/m2
04:02 32.1 °F 6.2 °F 30.20 in Calm   1.0 mph 33 % 0.00 in 0 W/m2
04:07 31.9 °F 5.3 °F 30.20 in WNW 3.0 mph 4.0 mph 32 % 0.00 in 0 W/m2
04:12 32.1 °F 5.5 °F 30.20 in WNW 2.0 mph 5.0 mph 32 % 0.00 in 0 W/m2
04:17 32.4 °F 5.1 °F 30.20 in Calm   5.0 mph 31 % 0.00 in 0 W/m2
04:22 32.7 °F 5.3 °F 30.20 in Calm   3.0 mph 31 % 0.00 in 0 W/m2
04:27 32.8 °F 6.1 °F 30.20 in Calm   2.0 mph 32 % 0.00 in 0 W/m2
04:32 32.8 °F 6.1 °F 30.20 in Calm   1.0 mph 32 % 0.00 in 0 W/m2
04:37 32.7 °F 6.7 °F 30.20 in Calm     33 % 0.00 in 0 W/m2
04:42 32.5 °F 6.5 °F 30.19 in Calm   1.0 mph 33 % 0.00 in 0 W/m2
04:47 32.3 °F 6.4 °F 30.19 in Calm   1.0 mph 33 % 0.00 in 0 W/m2
04:52 31.9 °F 5.3 °F 30.19 in Calm   1.0 mph 32 % 0.00 in 0 W/m2
04:57 31.6 °F 5.1 °F 30.19 in Calm   1.0 mph 32 % 0.00 in 0 W/m2
05:02 31.4 °F 5.6 °F 30.19 in Calm     33 % 0.00 in 0 W/m2
05:07 31.2 °F 6.0 °F 30.19 in Calm   1.0 mph 34 % 0.00 in 0 W/m2
05:10 31.0 °F 5.9 °F 30.20 in Calm   1.0 mph 34 % 0.00 in 0 W/m2
05:15 30.7 °F 5.6 °F 30.20 in Calm     34 % 0.00 in 0 W/m2
05:20 30.4 °F 5.3 °F 30.20 in WNW 1.0 mph 2.0 mph 34 % 0.00 in 0 W/m2
05:25 30.0 °F 5.0 °F 30.20 in Calm   2.0 mph 34 % 0.00 in 0 W/m2
05:30 29.8 °F 4.8 °F 30.20 in WNW 1.0 mph 2.0 mph 34 % 0.00 in 0 W/m2
05:40 29.4 °F 4.4 °F 30.20 in Calm   2.0 mph 34 % 0.00 in 0 W/m2
05:45 29.2 °F 4.9 °F 30.20 in Calm     35 % 0.00 in 0 W/m2
05:50 29.2 °F 4.9 °F 30.20 in WNW 2.0 mph 3.0 mph 35 % 0.00 in 0 W/m2
05:55 29.3 °F 5.0 °F 30.20 in Calm   3.0 mph 35 % 0.00 in 0 W/m2
06:00 29.3 °F 5.0 °F 30.20 in Calm   2.0 mph 35 % 0.00 in 0 W/m2
06:05 29.2 °F 4.9 °F 30.20 in WNW 2.0 mph 2.0 mph 35 % 0.00 in 0 W/m2
06:10 29.1 °F 4.8 °F 30.20 in WNW 2.0 mph 2.0 mph 35 % 0.00 in 0 W/m2
06:15 29.0 °F 4.7 °F 30.20 in WNW 3.0 mph 3.0 mph 35 % 0.00 in 0 W/m2
06:20 29.0 °F 4.7 °F 30.20 in Calm   4.0 mph 35 % 0.00 in 0 W/m2
06:25 29.0 °F 4.1 °F 30.20 in WNW 1.0 mph 4.0 mph 34 % 0.00 in 0 W/m2
06:30 29.2 °F 4.9 °F 30.20 in WNW 1.0 mph 3.0 mph 35 % 0.00 in 0 W/m2
06:35 29.6 °F 4.6 °F 30.20 in WNW 3.0 mph 5.0 mph 34 % 0.00 in 0 W/m2
06:40 29.8 °F 5.4 °F 30.20 in WNW 2.0 mph 5.0 mph 35 % 0.00 in 0 W/m2
06:45 29.9 °F 5.5 °F 30.20 in Calm   3.0 mph 35 % 0.00 in 0 W/m2
06:50 30.1 °F 5.1 °F 30.20 in WNW 2.0 mph 5.0 mph 34 % 0.00 in 0 W/m2
06:55 30.4 °F 5.3 °F 30.20 in WNW 4.0 mph 5.0 mph 34 % 0.00 in 0 W/m2
07:00 30.6 °F 4.9 °F 30.20 in WNW 3.0 mph 4.0 mph 33 % 0.00 in 0 W/m2
07:05 31.0 °F 5.2 °F 30.20 in WNW 1.0 mph 6.0 mph 33 % 0.00 in 5 W/m2
07:10 31.2 °F 5.4 °F 30.20 in Calm   6.0 mph 33 % 0.00 in 7 W/m2
07:15 31.2 °F 5.4 °F 30.20 in WNW 2.0 mph 4.0 mph 33 % 0.00 in 9 W/m2
07:20 31.2 °F 4.7 °F 30.20 in Calm   3.0 mph 32 % 0.00 in 11 W/m2
07:22 31.2 °F 4.7 °F 30.20 in WNW 1.0 mph 3.0 mph 32 % 0.00 in 12 W/m2
07:27 31.0 °F 4.5 °F 30.20 in WNW 2.0 mph 3.0 mph 32 % 0.00 in 14 W/m2
07:32 30.6 °F 4.2 °F 30.20 in WNW 2.0 mph 3.0 mph 32 % 0.00 in 16 W/m2
07:37 30.4 °F 4.7 °F 30.20 in Calm   3.0 mph 33 % 0.00 in 18 W/m2
07:42 30.2 °F 4.5 °F 30.20 in WNW 1.0 mph 2.0 mph 33 % 0.00 in 19 W/m2
07:47 30.2 °F 5.2 °F 30.20 in Calm   2.0 mph 34 % 0.00 in 21 W/m2
07:52 30.2 °F 5.2 °F 30.20 in Calm   1.0 mph 34 % 0.00 in 23 W/m2
07:57 30.6 °F 5.5 °F 30.20 in Calm     34 % 0.00 in 25 W/m2
08:02 31.0 °F 5.2 °F 30.20 in Calm     33 % 0.00 in 26 W/m2
08:07 31.3 °F 5.5 °F 30.20 in Calm     33 % 0.00 in 28 W/m2
08:12 31.8 °F 5.9 °F 30.20 in Calm     33 % 0.00 in 104 W/m2
08:17 32.3 °F 7.0 °F 30.20 in Calm     34 % 0.00 in 142 W/m2
08:22 32.8 °F 7.5 °F 30.20 in Calm     34 % 0.00 in 162 W/m2
08:28 33.5 °F 8.1 °F 30.20 in Calm     34 % 0.00 in 192 W/m2
08:33 34.6 °F 7.0 °F 30.20 in Calm     31 % 0.00 in 234 W/m2
08:38 36.0 °F 7.5 °F 30.20 in Calm     30 % 0.00 in 225 W/m2
08:43 37.6 °F 7.4 °F 30.20 in Calm     28 % 0.00 in 236 W/m2
08:48 38.6 °F 7.4 °F 30.20 in Calm     27 % 0.00 in 236 W/m2
08:53 39.3 °F 8.0 °F 30.20 in Calm     27 % 0.00 in 248 W/m2
08:58 39.9 °F 8.6 °F 30.20 in Calm     27 % 0.00 in 301 W/m2
09:03 40.8 °F 8.5 °F 30.20 in Calm     26 % 0.00 in 323 W/m2
09:08 41.6 °F 9.2 °F 30.20 in Calm     26 % 0.00 in 338 W/m2
09:13 42.4 °F 9.0 °F 30.19 in Calm     25 % 0.00 in 406 W/m2
09:18 43.2 °F 9.7 °F 30.19 in Calm   1.0 mph 25 % 0.00 in 401 W/m2
09:23 43.9 °F 9.4 °F 30.19 in Calm   1.0 mph 24 % 0.00 in 376 W/m2
09:28 44.4 °F 8.9 °F 30.19 in Calm     23 % 0.00 in 387 W/m2
09:33 44.4 °F 8.9 °F 30.19 in Calm     23 % 0.00 in 396 W/m2
09:39 44.2 °F 8.7 °F 30.19 in Calm     23 % 0.00 in 410 W/m2
09:44 44.2 °F 8.7 °F 30.19 in Calm     23 % 0.00 in 418 W/m2
09:49 44.3 °F 8.8 °F 30.19 in Calm     23 % 0.00 in 431 W/m2
09:51 44.3 °F 8.8 °F 30.19 in Calm     23 % 0.00 in 432 W/m2
09:55 44.5 °F 8.9 °F 30.19 in Calm     23 % 0.00 in 441 W/m2
10:06 45.2 °F 9.5 °F 30.19 in Calm     23 % 0.00 in 461 W/m2
10:10 45.3 °F 9.6 °F 30.19 in Calm     23 % 0.00 in 468 W/m2
10:16 45.5 °F 8.8 °F 30.19 in Calm     22 % 0.00 in 475 W/m2
10:21 45.2 °F 8.5 °F 30.19 in Calm     22 % 0.00 in 483 W/m2
10:26 45.2 °F 9.5 °F 30.18 in Calm     23 % 0.00 in 492 W/m2
10:31 45.5 °F 8.8 °F 30.18 in Calm     22 % 0.00 in 499 W/m2
10:36 46.0 °F 9.2 °F 30.18 in Calm     22 % 0.00 in 504 W/m2
10:41 46.3 °F 9.5 °F 30.17 in Calm     22 % 0.00 in 513 W/m2
10:46 46.9 °F 10.0 °F 30.17 in Calm     22 % 0.00 in 517 W/m2
10:51 47.5 °F 9.4 °F 30.17 in Calm     21 % 0.00 in 522 W/m2
10:56 48.0 °F 9.9 °F 30.17 in Calm     21 % 0.00 in 527 W/m2
11:01 48.6 °F 10.4 °F 30.17 in Calm     21 % 0.00 in 533 W/m2
11:06 49.3 °F 10.9 °F 30.16 in Calm     21 % 0.00 in 536 W/m2
11:11 49.9 °F 11.4 °F 30.16 in Calm     21 % 0.00 in 540 W/m2
11:16 50.5 °F 10.9 °F 30.15 in Calm     20 % 0.00 in 543 W/m2
11:21 51.1 °F 11.4 °F 30.15 in Calm     20 % 0.00 in 545 W/m2
11:26 51.7 °F 10.7 °F 30.14 in Calm     19 % 0.00 in 547 W/m2
11:31 52.1 °F 11.0 °F 30.14 in Calm     19 % 0.00 in 550 W/m2
11:36 52.3 °F 11.2 °F 30.14 in Calm     19 % 0.00 in 548 W/m2
11:41 52.6 °F 11.4 °F 30.14 in Calm     19 % 0.00 in 552 W/m2
11:46 52.6 °F 10.2 °F 30.13 in Calm   1.0 mph 18 % 0.00 in 552 W/m2
11:51 52.6 °F 10.2 °F 30.13 in ESE 2.0 mph 2.0 mph 18 % 0.00 in 552 W/m2
11:56 52.4 °F 10.1 °F 30.12 in Calm   2.0 mph 18 % 0.00 in 552 W/m2
12:01 52.6 °F 10.2 °F 30.12 in East 1.0 mph 2.0 mph 18 % 0.00 in 550 W/m2
12:06 52.8 °F 11.6 °F 30.12 in Calm   2.0 mph 19 % 0.00 in 548 W/m2
12:11 52.4 °F 11.3 °F 30.11 in Calm   2.0 mph 19 % 0.00 in 547 W/m2
12:16 52.7 °F 11.5 °F 30.10 in Calm   2.0 mph 19 % 0.00 in 547 W/m2
12:21 53.1 °F 10.6 °F 30.10 in ESE 1.0 mph 2.0 mph 18 % 0.00 in 543 W/m2
12:26 53.3 °F 10.8 °F 30.10 in Calm   2.0 mph 18 % 0.00 in 540 W/m2
12:31 53.5 °F 11.0 °F 30.09 in ESE 2.0 mph 2.0 mph 18 % 0.00 in 536 W/m2
12:36 53.6 °F 11.0 °F 30.09 in Calm   3.0 mph 18 % 0.00 in 533 W/m2
12:41 54.1 °F 11.5 °F 30.08 in Calm   3.0 mph 18 % 0.00 in 529 W/m2
12:46 54.4 °F 10.4 °F 30.08 in SSE 1.0 mph 3.0 mph 17 % 0.00 in 524 W/m2
12:51 54.4 °F 11.7 °F 30.08 in ESE 2.0 mph 3.0 mph 18 % 0.00 in 519 W/m2
12:56 54.7 °F 10.7 °F 30.08 in Calm   2.0 mph 17 % 0.00 in 513 W/m2
13:01 55.1 °F 11.0 °F 30.08 in Calm   2.0 mph 17 % 0.00 in 506 W/m2
13:06 55.2 °F 11.1 °F 30.08 in Calm   2.0 mph 17 % 0.00 in 503 W/m2
13:11 55.3 °F 11.2 °F 30.07 in Calm   2.0 mph 17 % 0.00 in 496 W/m2
13:16 55.5 °F 11.3 °F 30.07 in SE 1.0 mph 2.0 mph 17 % 0.00 in 485 W/m2
13:21 55.8 °F 11.6 °F 30.06 in Calm   1.0 mph 17 % 0.00 in 480 W/m2
Rio Rancho, New Mexico Weather
Compliments of Weather Underground - 2 mb
top